Location: Newark
(7.0858°N, 171.3717°E)
Time: 04:20:36
(UTC+00:00)

Courier 1B - Pass Details

Date: 26 November 2020
Orbit: 962 x 1209 km, 28.3° (Epoch: 20 January)

Event Time Altitude Azimuth Distance (km) Brightness Sun altitude
Rises 20:17:07 0° 280° (W) 4,105 10.2 23.6°
Reaches altitude 10° 20:20:22 10° 270° (W) 3,135 9.7 24.3°
Maximum altitude 20:27:04 31° 211° (SSW) 1,940 9.3 25.8°
Drops below altitude 10° 20:33:36 10° 152° (SSE) 3,042 11.1 27.3°
Sets 20:36:43 0° 141° (SE) 3,966 11.7 27.9°
